Location: Cahas Mountain Overlook
(37.0833°N, 80.1000°W)
Time: 09:35:38
(UTC-05:00)

S-56A Canister/Altair - Pass Details

Date: 04 December 2023
Orbit: 640 x 2488 km, 38.9° (Epoch: 25 February)

Event Time Altitude Azimuth Distance (km) Brightness Sun altitude
Rises 10:50:30 0° 221° (SW) 3,455 11.2 27.7°
Reaches altitude 10° 10:53:33 10° 210° (SSW) 2,315 10.6 27.9°
Maximum altitude 10:57:56 29° 151° (SSE) 1,242 11.3 28.2°
Drops below altitude 10° 11:01:48 10° 91° (E) 2,023 10.0 28.5°
Sets 11:04:17 0° 79° (E) 2,939 10.6 28.6°
